Weather History for KFNB - April, 2013

Change the Weather History Date:

Saturday, April 20, 2013

  Actual Average Record
Temperature  
Mean Temperature 40 °F -  
Max Temperature 53 °F 66 °F 91 °F (1987)
Min Temperature 26 °F 43 °F 25 °F (1953)
Degree Days  
Heating Degree Days 26    
Moisture  
Dew Point 26 °F    
Average Humidity 59    
Maximum Humidity 85    
Minimum Humidity 35    
Precipitation  
Precipitation 0.00 in - - ()
Sea Level Pressure  
Sea Level Pressure 30.19 in    
Wind  
Wind Speed 6 mph (ESE)    
Max Wind Speed 17 mph    
Max Gust Speed 22 mph    
Visibility 10 miles    
Events      
Averages and records for this station are not official NWS values.
T = Trace of Precipitation, MM = Missing Value Source: NWS Daily Summary

Daily Weather History Graph

Daily Weather History Graph

Search for Another Location

Airport or City:

Trip Planner

Search our weather history database for the weather conditions in past years. The results will help you decide how hot, cold, wet, or windy it might be!

Date:

Astronomy

Apr. 20, 2013 Rise Set
Actual Time 6:36 AM CDT 8:06 PM CDT
Civil Twilight 6:08 AM CDT 8:34 PM CDT
Nautical Twilight 5:34 AM CDT 9:09 PM CDT
Astronomical Twilight 4:57 AM CDT 9:45 PM CDT
Moon 2:51 PM CDT (4/20) 3:26 AM CDT (4/20)
Length of Visible Light 14h 26m
Length of Day
13h 29m
Waxing Gibbous, 71% of the Moon is Illuminated
Apr 20
Waxing Gibbous
Apr 25
Full
May 2
Last Quarter
May 9
New
May 17
First Quarter

Hourly Weather History & Observations

Time (CDT) Temp. Windchill Dew Point Humidity Pressure Visibility Wind Dir Wind Speed Gust Speed Precip Events Conditions
12:53 AM 33.1 °F 30.0 °F 24.1 °F 70% 30.15 in 10.0 mi WNW 3.5 mph - N/A   Clear
1:53 AM 30.0 °F 25.2 °F 23.0 °F 75% 30.15 in 10.0 mi NW 4.6 mph - N/A   Clear
2:53 AM 28.9 °F 25.2 °F 23.0 °F 78% 30.16 in 10.0 mi SW 3.5 mph - N/A   Clear
3:53 AM 27.0 °F - 23.0 °F 85% 30.18 in 10.0 mi Calm Calm - N/A   Clear
4:53 AM 28.0 °F - 24.1 °F 85% 30.19 in 10.0 mi Calm Calm - N/A   Clear
5:53 AM 26.1 °F - 21.9 °F 84% 30.19 in 10.0 mi Calm Calm - N/A   Clear
6:53 AM 27.0 °F - 21.9 °F 81% 30.21 in 10.0 mi Calm Calm - N/A   Clear
7:53 AM 30.0 °F - 26.1 °F 85% 30.24 in 10.0 mi Calm Calm - N/A   Mostly Cloudy
8:53 AM 36.0 °F 29.6 °F 26.1 °F 67% 30.25 in 10.0 mi ENE 8.1 mph - N/A   Overcast
9:53 AM 39.0 °F 33.4 °F 26.1 °F 60% 30.27 in 10.0 mi ESE 8.1 mph - N/A   Overcast
10:53 AM 41.0 °F 33.9 °F 26.1 °F 55% 30.26 in 10.0 mi East 12.7 mph - N/A   Overcast
11:53 AM 44.1 °F 38.6 °F 26.1 °F 49% 30.27 in 10.0 mi East 10.4 mph - N/A   Mostly Cloudy
12:53 PM 45.0 °F 40.1 °F 27.0 °F 49% 30.25 in 10.0 mi East 9.2 mph - N/A   Mostly Cloudy
1:53 PM 46.9 °F - 28.0 °F 48% 30.22 in 10.0 mi ESE 11.5 mph 17.3 mph N/A   Mostly Cloudy
2:53 PM 50.0 °F - 28.0 °F 43% 30.19 in 10.0 mi ESE 11.5 mph - N/A   Clear
3:53 PM 51.1 °F - 26.1 °F 38% 30.17 in 10.0 mi ESE 12.7 mph 20.7 mph N/A   Clear
4:53 PM 53.1 °F - 26.1 °F 35% 30.15 in 10.0 mi ESE 17.3 mph 21.9 mph N/A   Clear
5:53 PM 52.0 °F - 27.0 °F 38% 30.15 in 10.0 mi ESE 16.1 mph - N/A   Scattered Clouds
6:53 PM 51.1 °F - 28.0 °F 41% 30.14 in 10.0 mi ESE 13.8 mph - N/A   Overcast
7:53 PM 48.9 °F - 28.9 °F 46% 30.15 in 10.0 mi ESE 13.8 mph - N/A   Mostly Cloudy
8:53 PM 48.0 °F - 30.0 °F 50% 30.15 in 10.0 mi East 12.7 mph - N/A   Mostly Cloudy
9:53 PM 46.9 °F - 30.0 °F 52% 30.17 in 10.0 mi ESE 11.5 mph - N/A   Scattered Clouds
10:53 PM 46.0 °F 41.0 °F 30.0 °F 54% 30.17 in 10.0 mi ESE 10.4 mph - N/A   Overcast
11:53 PM 46.9 °F - 30.0 °F 52% 30.15 in 10.0 mi ESE 9.2 mph - N/A   Overcast